Погода Котельниково

Погода Котельниково : погода сейчас, прогноз погоды и архив. Всё, что Вы хотите узнать о погоде Котельниково!

Поиск расширенной информации на нашем сайте:

Другие новости

Новости СМИ2

Главная страница сайта

Новости сайта

03.07.2017

Напоминаем, что на нашем специализированном сайте Метеоцентр.Азия вы можете получить высокодетализированные автоматические прогнозы погоды по пунктам России, СНГ и мира в авиационном формате (включающие направление и скорость ветра, видимость, явления погоды, количество и форму облачности, нижнюю и верхнюю границу облачности).


Погода Котельниково - сегодня

Время (UTC), дата Ветер
(°,м/с) 
Видим.   Явления Облачность Т
(°С)
Тd
(°С)
f(%) Тe
(°С)
Pmin
(гПа)
dP
(гПа)
Po
(мм)
O2
(г/м3)
Тmin Tmax R s Состояние
почвы
00 18.08.17 080 (В) 10 км    ясно 
+17.4 +2.5 37 +19  1017.8  0.2  759  287           
03 18.08.17 070 (В) 10 км    ясно 
+17.9 +1.8 34 +18  1018.6  0.8  760  287  +17        сухая 
06 18.08.17 080 (В) 6-10{11}  10 км    ясно 
+30.7 +0 14 +31  1018.3  760  275           
09 18.08.17 100 (В) 9-14{15}  10 км    3/0 средняя 
[Ac As]
+33.5 -2 10 +34  1017.9  -0.4  759  273           
12 18.08.17 100 (В) 7-11{15}  10 км    6/6 600 м 
[Cu med, cong]
+34 -1.4 10 +34  1016.7  -1.1  758  272           
15 18.08.17 090 (В) 6{13}  10 км    6/6 600 м 
[Cu hum]
+33.3 -0.4 12 +33  1016.6  -0.2  758  272    +35.8       
18 18.08.17 060 (СВ) 7-12{12}  10 км    4/4 600 м 
[Cu med, cong]
+29.1 +2.9 19 +29  1017.8  1.2  759  276           
21 18.08.17 070 (В) 4{12}  10 км    ясно 
+24.1 +5.8 31 +24  1018.8  0.8  760  280           
00 19.08.17 040 (СВ) 10 км    ясно 
+19.7 +6.4 42 +21  1018.7  0.1  760  285           
03 19.08.17 160 (Ю) 10 км    ясно 
+16.2 +8.4 60 +18  1019.3  0.5  760  288  +15.6        сухая 
06 19.08.17 080 (В) 10 км    ясно 
+27.5 +7 27 +28  1019.9  0.8  761  277           
09 19.08.17 080 (В) 10 км    4/0 средняя 
[Ac trans]
+34.1 +1.3 13 +34  1018.9  -0.9  760  272           
12 19.08.17 100 (В) 4{12}  10 км    4/0 средняя 
[Ac trans]
+35 +0.3 11 +35  1017.6  -1.2  759  271           
15 19.08.17 090 (В) 5{12}  10 км    4/0 средняя 
[Ac trans]
+34 -2.4 10 +34  1017.3  -0.4  759  272    +35.5       
18 19.08.17 070 (В) 10 км    ясно 
+27.3 +3.1 21 +27  1018.7  1.3  760  278           
21 19.08.17 070 (В) 5{10}  10 км    ясно 
+22.9 +4.6 30 +23  1019.2  0.4  760  282           
00 20.08.17 070 (В) 10 км    ясно 
+20.3 +5.5 38 +20  1019  -0.3  760  284           
03 20.08.17 тихо ()   10 км    3/0 средняя 
[Ac trans]
+17.4 +6.1 47 +17  1019.4  0.4  760  287  +15.7        сухая 
06 20.08.17 090 (В) 10 км    3/0 средняя 
[Ac trans]
+31 +0.1 14 +31  1019.1  0.1  760  275           
09 20.08.17 110 (В) 6{12}  10 км    8/8 600 м 
[Cu med, cong]
+32 +1.5 14 +32  1018.5  -0.6  760  274           
12 20.08.17 100 (В) 7-11{15}  10 км    8/8 600 м 
[Cu med, cong]
+33.2 +1.4 13 +33  1017.5  -1  759  272           
15 20.08.17 110 (В) 8-13  10 км    9/9 600 м 
[Sc diur, vesp]
+31 +2.2 16 +31  1017.1  -0.4  759  274    +34       
18 20.08.17 080 (В) 7-10{13}  10 км    10/10 600 м 
[Sc diur, vesp]
+28.2 +3.1 20 +28  1018.1  0.9  759  277           
21 20.08.17 090 (В) 4{10}  10 км    ясно 
+25.1 +3 24 +25  1018.4  0.2  760  280           
00 21.08.17 190 (Ю) 10 км    10/10 600 м 
[Sc diur, vesp]
+20.7 +10.4 52 +22  1019  0.6  760  283           
Время (UTC), дата Ветер
(°,м/с) 
Видим.   Явления Облачность Т
(°С)
Тd
(°С)
f(%) Тe
(°С)
Pmin
(гПа)
dP
(гПа)
Po
(мм)
O2
(г/м3)
Тmin Tmax R s Состояние
почвы

Для получения пояснительной информации подведите курсор к названию столбца.

ПОГОДА Котельниково - архив

Всё, что Вы хотите узнать о погоде Котельниково - удобно и подробно!

Выберите нужную дату (начиная с 1 января 2015* года) и нажмите кнопку "Найти".
Будут отображены архивные сводки погоды по пункту Котельниково, начиная с указанной даты.


Отображать данные в формате CSV (для использования в таблицах Excel)


Внимание! Наш архив погоды предназначен исключительно для личного некоммерческого использования в познавательных целях. Если Вам необходимы официальные справки о состоянии погоды (для производственных, юридических, коммерческих и т.п. целей), обращайтесь в органы Росгидромета.

*Примечание: данная дата относится к архиву по метеостанциям СССР (Россия, СНГ, Балтия).
Архив по метеостанциям Зарубежной Европы и Азии (кроме Китая) хранится 10 дней, по другим регионам земного шара (Китай, Африка, Америка, Австралия, Океания) - 1 день.

Котельниково - район местоположения метеостанции


Название, широта, долгота, высота метеостанции:
Котельниково 47.6°ш. 43.2°д. 49 м над ур. моря [Российская Федерация]

Дополнительная информация

В oтличие oт бoльшинства пoгoдных сайтoв мы публикуем пoдрoбную метеoинфoрмацию в детальнoм прoфессиoнальнoм фoрмате.

Характеристики температуры и влажнoсти вoздуха измеряются на высoте 2 м в тени вдали oт зданий и деревьев.
Скoрoсть ветра измеряется на высoте 10 м (на урoвне рoста челoвека скoрoсть ветра ниже в 1.5-2 раза). Если метеoстанция нахoдится в гoрoде или в лесу, тo скoрoсть ветра занижена на 2-4 м/с пo сравнению с oткрытым местoм. Скoрoсть ветра над акватoриями крупных рек и oзёр, а также на вершинах хoлмoв на 2-5 м/с выше, чем в oбычных услoвиях.
Атмoсфернoе давление в разных тoчках местнoсти мoжет значительнo oтличаться oт давления на метеoстанции, в зависимoсти oт услoвий рельефа (при пoдъёме на 10 м давление пoнижается примернo на 1 мм рт.ст.).